Location: ??
(35.4824°N, 139.4679°E)
Time: 07:10:15
(UTC+00:00)

Cosmos 44 Rocket - Pass Details

Date: 29 October 2020
Orbit: 642 x 748 km, 65.1° (Epoch: 02 December)

Event Time Altitude Azimuth Distance (km) Brightness Sun altitude
Exits shadow 18:45:43 40° 164° (SSE) 1,099 4.3 -28.2°
Drops below altitude 10° 18:48:59 10° 157° (SSE) 2,256 6.1 -27.6°
Sets 18:51:21 0° 156° (SSE) 3,173 7.0 -27.1°
